QPF
0.11 0.09 0.09 0.09 0.08 0.09 0.10 0.10 0.09 0.07 0.07 0.07 0.06 0.06 0.06 0.06 0.03 0.01 0.02 0.03 0.04 0.06 0.08 0.10 0.14 0.14 0.14 0.13 0.12 0.11 0.09 0.07 0.06 0.04 0.02 0.02 0.02 0.01 0.01 0.00 0.00 0.00 0.01
0.07 0.07 0.08 0.07 0.06 0.06 0.06 0.08 0.07 0.07 0.07 0.09 0.07 0.06 0.06 0.05 0.04 0.03 0.03 0.04 0.02 0.04 0.07 0.09 0.14 0.16 0.16 0.16 0.15 0.13 0.11 0.10 0.09 0.07 0.04 0.03 0.03 0.02 0.01 0.01 0.00 0.00 0.00
0.06 0.06 0.06 0.05 0.05 0.05 0.06 0.06 0.06 0.06 0.07 0.07 0.09 0.09 0.08 0.06 0.04 0.05 0.05 0.05 0.04 0.03 0.06 0.08 0.12 0.15 0.17 0.19 0.21 0.20 0.18 0.14 0.11 0.09 0.07 0.04 0.02 0.02 0.02 0.02 0.01 0.00 0.00
0.06 0.05 0.05 0.05 0.04 0.05 0.04 0.04 0.05 0.05 0.06 0.04 0.05 0.04 0.03 0.04 0.03 0.04 0.04 0.04 0.04 0.04 0.04 0.06 0.08 0.11 0.13 0.18 0.21 0.24 0.23 0.17 0.13 0.10 0.08 0.06 0.04 0.02 0.01 0.02 0.02 0.01 0.00
0.03 0.02 0.04 0.04 0.03 0.03 0.03 0.03 0.03 0.02 0.01 0.01 0.01 0.02 0.02 0.02 0.02 0.02 0.03 0.04 0.04 0.04 0.03 0.04 0.04 0.06 0.10 0.16 0.19 0.23 0.26 0.24 0.19 0.15 0.12 0.09 0.07 0.04 0.02 0.01 0.01 0.02 0.01
0.01 0.01 0.02 0.03 0.02 0.02 0.02 0.02 0.02 0.01 0.01 0.01 0.01 0.01 0.01 0.01 0.01 0.02 0.02 0.03 0.03 0.04 0.03 0.03 0.04 0.03 0.06 0.09 0.12 0.15 0.20 0.25 0.23 0.18 0.16 0.14 0.11 0.08 0.06 0.03 0.01 0.01 0.01
0.01 0.01 0.00 0.01 0.01 0.01 0.01 0.01 0.01 0.01 0.01 0.01 0.01 0.01 0.01 0.01 0.01 0.01 0.02 0.02 0.02 0.03 0.03 0.04 0.04 0.05 0.05 0.05 0.06 0.08 0.11 0.16 0.20 0.18 0.17 0.16 0.14 0.12 0.10 0.06 0.03 0.01 0.01
0.01 0.00 0.01 0.01 0.01 0.01 0.01 0.01 0.01 0.00 0.01 0.01 0.01 0.02 0.02 0.01 0.01 0.01 0.01 0.02 0.02 0.02 0.03 0.03 0.04 0.06 0.05 0.07 0.06 0.05 0.07 0.10 0.14 0.15 0.15 0.15 0.15 0.14 0.11 0.08 0.06 0.04 0.02
0.00 0.01 0.01 0.01 0.01 0.01 0.01 0.00 0.00 0.00 0.00 0.01 0.01 0.01 0.01 0.02 0.01 0.01 0.00 0.01 0.01 0.02 0.03 0.03 0.04 0.04 0.04 0.06 0.07 0.06 0.05 0.06 0.09 0.13 0.14 0.14 0.13 0.13 0.13 0.12 0.10 0.08 0.05
0.00 0.00 0.00 0.00 0.00 0.00 0.00 0.00 0.00 0.00 0.00 0.00 0.00 0.00 0.00 0.01 0.01 0.01 0.01 0.01 0.00 0.01 0.01 0.01 0.01 0.01 0.02 0.03 0.05 0.04 0.03 0.03 0.05 0.09 0.13 0.15 0.14 0.13 0.13 0.14 0.15 0.12 0.09
0.00 0.00 0.00 0.00 0.00 0.00 0.00 0.00 0.00 0.00 0.00 0.00 0.00 0.00 0.00 0.00 0.00 0.00 0.00 0.00 0.00 0.00 0.00 0.00 0.00 0.00 0.00 0.01 0.03 0.03 0.02 0.02 0.03 0.05 0.08 0.10 0.11 0.12 0.14 0.15 0.17 0.16 0.14
0.00 0.00 0.00 0.00 0.00 0.00 0.00 0.00 0.00 0.00 0.00 0.00 0.00 0.00 0.00 0.00 0.00 0.00 0.00 0.00 0.00 0.00 0.00 0.00 0.00 0.00 0.00 0.00 0.00 0.01 0.01 0.02 0.02 0.02 0.04 0.07 0.10 0.10 0.11 0.14 0.16 0.18 0.19
0.00 0.00 0.00 0.00 0.00 0.00 0.00 0.00 0.00 0.00 0.00 0.00 0.00 0.00 0.00 0.00 0.00 0.00 0.00 0.00 0.00 0.00 0.00 0.00 0.00 0.00 0.00 0.00 0.00 0.00 0.00 0.01 0.01 0.01 0.02 0.03 0.05 0.07 0.09 0.10 0.11 0.13 0.17
0.00 0.00 0.00 0.00 0.00 0.00 0.00 0.00 0.00 0.00 0.00 0.00 0.00 0.00 0.00 0.00 0.00 0.00 0.00 0.00 0.00 0.00 0.00 0.00 0.00 0.00 0.00 0.00 0.00 0.00 0.00 0.00 0.00 0.00 0.01 0.02 0.02 0.04 0.05 0.05 0.06 0.06 0.09
0.00 0.00 0.00 0.00 0.00 0.00 0.00 0.00 0.00 0.00 0.00 0.00 0.00 0.00 0.00 0.00 0.00 0.00 0.00 0.00 0.01 0.00 0.00 0.00 0.00 0.00 0.00 0.00 0.00 0.00 0.00 0.00 0.00 0.00 0.00 0.00 0.01 0.02 0.03 0.03 0.04 0.04 0.04
0.00 0.00 0.00 0.00 0.00 0.00 0.00 0.00 0.00 0.00 0.00 0.00 0.00 0.00 0.00 0.00 0.00 0.00 0.00 0.00 0.00 0.00 0.00 0.00 0.00 0.00 0.00 0.00 0.00 0.00 0.00 0.00 0.00 0.00 0.00 0.00 0.00 0.01 0.02 0.03 0.03 0.03 0.03
0.00 0.00 0.00 0.00 0.00 0.00 0.00 0.00 0.00 0.00 0.00 0.00 0.00 0.00 0.00 0.00 0.00 0.00 0.00 0.00 0.01 0.01 0.01 0.00 0.00 0.00 0.00 0.00 0.00 0.00 0.00 0.00 0.00 0.00 0.00 0.00 0.00 0.00 0.00 0.01 0.02 0.03 0.03
0.00 0.00 0.00 0.00 0.00 0.00 0.00 0.00 0.00 0.00 0.00 0.00 0.00 0.00 0.00 0.00 0.00 0.00 0.00 0.00 0.01 0.01 0.01 0.00 0.00 0.00 0.00 0.00 0.00 0.00 0.00 0.00 0.00 0.00 0.00 0.00 0.00 0.00 0.00 0.00 0.00 0.01 0.02
0.00 0.00 0.00 0.00 0.00 0.00 0.00 0.00 0.00 0.00 0.00 0.00 0.00 0.00 0.00 0.00 0.00 0.00 0.00 0.00 0.00 0.00 0.00 0.00 0.00 0.00 0.00 0.00 0.00 0.00 0.00 0.00 0.00 0.00 0.00 0.00 0.00 0.00 0.00 0.00 0.00 0.00 0.00
0.00 0.00 0.00 0.00 0.00 0.00 0.00 0.00 0.00 0.00 0.00 0.00 0.00 0.00 0.00 0.00 0.00 0.00 0.00 0.00 0.00 0.00 0.00 0.00 0.00 0.00 0.00 0.00 0.00 0.00 0.00 0.00 0.00 0.00 0.00 0.00 0.00 0.00 0.00 0.00 0.00 0.00 0.00
0.00 0.00 0.00 0.00 0.00 0.00 0.00 0.00 0.00 0.00 0.00 0.00 0.00 0.00 0.00 0.00 0.00 0.00 0.00 0.00 0.00 0.00 0.00 0.00 0.00 0.00 0.00 0.01 0.00 0.00 0.00 0.00 0.00 0.00 0.00 0.00 0.00 0.00 0.00 0.00 0.00 0.00 0.00
0.00 0.00 0.00 0.00 0.00 0.00 0.00 0.00 0.00 0.00 0.00 0.00 0.00 0.00 0.00 0.00 0.00 0.00 0.00 0.00 0.00 0.00 0.00 0.00 0.00 0.00 0.01 0.01 0.01 0.01 0.01 0.00 0.00 0.00 0.00 0.00 0.00 0.00 0.00 0.00 0.00 0.00 0.00
0.00 0.00 0.00 0.00 0.00 0.00 0.00 0.00 0.00 0.00 0.00 0.00 0.00 0.00 0.00 0.00 0.00 0.00 0.00 0.00 0.00 0.00 0.00 0.00 0.00 0.00 0.01 0.01 0.02 0.02 0.02 0.02 0.01 0.01 0.01 0.00 0.00 0.00 0.00 0.00 0.00 0.00 0.00
0.00 0.00 0.00 0.00 0.00 0.00 0.00 0.00 0.00 0.00 0.00 0.00 0.00 0.00 0.00 0.00 0.00 0.00 0.00 0.00 0.00 0.00 0.00 0.00 0.00 0.00 0.01 0.01 0.03 0.02 0.03 0.02 0.01 0.01 0.01 0.00 0.00 0.00 0.00 0.00 0.00 0.00 0.00
0.01 0.00 0.00 0.00 0.00 0.00 0.00 0.00 0.00 0.00 0.00 0.00 0.00 0.00 0.00 0.00 0.00 0.00 0.00 0.00 0.00 0.00 0.00 0.00 0.00 0.00 0.00 0.00 0.01 0.01 0.02 0.02 0.01 0.00 0.01 0.01 0.00 0.00 0.00 0.00 0.00 0.00 0.00
0.00 0.00 0.00 0.00 0.00 0.00 0.01 0.01 0.01 0.00 0.00 0.00 0.00 0.00 0.00 0.00 0.00 0.00 0.00 0.01 0.00 0.01 0.01 0.01 0.01 0.00 0.00 0.00 0.00 0.00 0.01 0.02 0.02 0.01 0.00 0.01 0.01 0.01 0.01 0.00 0.01 0.01 0.01
MSLP
1017.90 1017.94 1017.93 1017.91 1017.90 1017.94 1018.04 1018.19 1018.37 1018.56 1018.71 1018.81 1018.85 1018.84 1018.82 1018.83 1018.89 1019.04 1019.28 1019.58 1019.92 1020.25 1020.55 1020.77 1020.94 1021.04 1021.11 1021.19 1021.28 1021.42 1021.60 1021.81 1022.03 1022.24 1022.44 1022.62 1022.77 1022.92 1023.08 1023.25 1023.45 1023.66 1023.88
1018.12 1018.15 1018.11 1018.06 1018.02 1018.03 1018.09 1018.22 1018.39 1018.57 1018.73 1018.85 1018.92 1018.94 1018.94 1018.95 1019.00 1019.12 1019.31 1019.55 1019.84 1020.12 1020.38 1020.58 1020.73 1020.84 1020.92 1021.00 1021.11 1021.25 1021.43 1021.65 1021.89 1022.12 1022.34 1022.55 1022.74 1022.91 1023.09 1023.27 1023.46 1023.66 1023.87
1018.36 1018.39 1018.36 1018.30 1018.25 1018.24 1018.28 1018.37 1018.52 1018.68 1018.84 1018.96 1019.04 1019.07 1019.08 1019.08 1019.11 1019.18 1019.31 1019.49 1019.70 1019.92 1020.13 1020.29 1020.42 1020.52 1020.60 1020.68 1020.79 1020.94 1021.13 1021.36 1021.61 1021.87 1022.12 1022.35 1022.57 1022.78 1022.98 1023.17 1023.37 1023.57 1023.77
1018.57 1018.62 1018.62 1018.59 1018.55 1018.53 1018.56 1018.64 1018.75 1018.89 1019.03 1019.14 1019.21 1019.24 1019.23 1019.22 1019.21 1019.24 1019.30 1019.41 1019.54 1019.68 1019.81 1019.92 1020.01 1020.08 1020.15 1020.23 1020.34 1020.49 1020.69 1020.92 1021.19 1021.47 1021.75 1022.02 1022.27 1022.51 1022.74 1022.97 1023.19 1023.40 1023.61
1018.71 1018.81 1018.86 1018.88 1018.88 1018.89 1018.91 1018.97 1019.06 1019.17 1019.27 1019.36 1019.41 1019.42 1019.40 1019.36 1019.32 1019.29 1019.29 1019.31 1019.35 1019.40 1019.45 1019.49 1019.53 1019.56 1019.60 1019.66 1019.76 1019.91 1020.11 1020.36 1020.64 1020.94 1021.25 1021.56 1021.85 1022.13 1022.40 1022.66 1022.92 1023.16 1023.40
1018.77 1018.93 1019.06 1019.14 1019.20 1019.25 1019.30 1019.35 1019.42 1019.49 1019.56 1019.60 1019.62 1019.61 1019.57 1019.50 1019.42 1019.35 1019.27 1019.22 1019.17 1019.13 1019.09 1019.05 1019.02 1019.00 1019.00 1019.04 1019.13 1019.28 1019.48 1019.73 1020.02 1020.34 1020.68 1021.01 1021.34 1021.66 1021.97 1022.27 1022.57 1022.86 1023.14
1018.76 1018.99 1019.19 1019.36 1019.49 1019.59 1019.66 1019.72 1019.77 1019.81 1019.84 1019.85 1019.84 1019.80 1019.73 1019.64 1019.53 1019.40 1019.28 1019.15 1019.02 1018.89 1018.77 1018.66 1018.56 1018.49 1018.45 1018.46 1018.53 1018.67 1018.86 1019.11 1019.41 1019.73 1020.08 1020.43 1020.78 1021.13 1021.48 1021.82 1022.15 1022.49 1022.82
1018.72 1019.00 1019.27 1019.52 1019.72 1019.87 1019.98 1020.05 1020.09 1020.11 1020.10 1020.07 1020.03 1019.96 1019.87 1019.76 1019.63 1019.47 1019.31 1019.12 1018.93 1018.74 1018.55 1018.37 1018.21 1018.09 1018.01 1018.00 1018.04 1018.16 1018.34 1018.58 1018.86 1019.18 1019.52 1019.87 1020.22 1020.58 1020.94 1021.30 1021.66 1022.03 1022.39
1018.66 1018.98 1019.31 1019.61 1019.88 1020.08 1020.22 1020.30 1020.34 1020.33 1020.29 1020.24 1020.17 1020.09 1019.99 1019.87 1019.73 1019.56 1019.37 1019.15 1018.92 1018.68 1018.43 1018.21 1018.01 1017.85 1017.74 1017.70 1017.73 1017.82 1017.98 1018.19 1018.45 1018.74 1019.04 1019.36 1019.69 1020.03 1020.37 1020.72 1021.08 1021.46 1021.83
1018.59 1018.94 1019.30 1019.65 1019.95 1020.18 1020.35 1020.44 1020.47 1020.46 1020.41 1020.34 1020.26 1020.17 1020.07 1019.96 1019.82 1019.66 1019.46 1019.23 1018.98 1018.72 1018.45 1018.19 1017.97 1017.78 1017.66 1017.60 1017.60 1017.67 1017.79 1017.97 1018.18 1018.42 1018.67 1018.94 1019.21 1019.50 1019.79 1020.11 1020.44 1020.78 1021.15
1018.54 1018.88 1019.25 1019.61 1019.93 1020.18 1020.36 1020.46 1020.50 1020.47 1020.42 1020.35 1020.28 1020.20 1020.12 1020.02 1019.90 1019.76 1019.57 1019.35 1019.10 1018.83 1018.56 1018.29 1018.06 1017.86 1017.73 1017.65 1017.63 1017.67 1017.76 1017.88 1018.04 1018.22 1018.40 1018.59 1018.79 1019.00 1019.23 1019.47 1019.74 1020.04 1020.37
1018.47 1018.80 1019.15 1019.51 1019.82 1020.08 1020.26 1020.37 1020.40 1020.39 1020.35 1020.29 1020.23 1020.18 1020.12 1020.05 1019.96 1019.84 1019.68 1019.48 1019.25 1018.99 1018.72 1018.46 1018.22 1018.03 1017.88 1017.79 1017.75 1017.75 1017.80 1017.88 1017.98 1018.09 1018.20 1018.31 1018.43 1018.56 1018.70 1018.87 1019.06 1019.29 1019.55
1018.37 1018.68 1019.01 1019.34 1019.64 1019.89 1020.07 1020.17 1020.22 1020.22 1020.20 1020.17 1020.14 1020.11 1020.09 1020.05 1020.00 1019.90 1019.77 1019.59 1019.38 1019.14 1018.88 1018.63 1018.40 1018.20 1018.04 1017.93 1017.87 1017.85 1017.86 1017.89 1017.93 1017.98 1018.02 1018.07 1018.12 1018.17 1018.24 1018.33 1018.45 1018.60 1018.80
1018.24 1018.52 1018.83 1019.13 1019.41 1019.64 1019.81 1019.92 1019.98 1020.01 1020.01 1020.01 1020.01 1020.02 1020.03 1020.02 1019.99 1019.92 1019.81 1019.65 1019.46 1019.23 1018.99 1018.74 1018.51 1018.31 1018.15 1018.02 1017.93 1017.88 1017.85 1017.84 1017.84 1017.84 1017.84 1017.84 1017.83 1017.84 1017.85 1017.88 1017.94 1018.03 1018.17
1018.08 1018.34 1018.63 1018.90 1019.16 1019.37 1019.54 1019.65 1019.72 1019.77 1019.80 1019.83 1019.86 1019.90 1019.93 1019.95 1019.94 1019.89 1019.79 1019.65 1019.46 1019.25 1019.01 1018.77 1018.54 1018.33 1018.15 1018.00 1017.89 1017.80 1017.74 1017.69 1017.66 1017.63 1017.60 1017.58 1017.55 1017.53 1017.52 1017.53 1017.55 1017.61 1017.70
1017.89 1018.15 1018.41 1018.68 1018.91 1019.11 1019.27 1019.39 1019.47 1019.54 1019.59 1019.64 1019.70 1019.76 1019.80 1019.83 1019.83 1019.79 1019.70 1019.56 1019.38 1019.17 1018.94 1018.70 1018.47 1018.25 1018.05 1017.87 1017.73 1017.61 1017.51 1017.44 1017.38 1017.33 1017.30 1017.27 1017.25 1017.23 1017.22 1017.23 1017.25 1017.29 1017.36
1017.67 1017.94 1018.20 1018.46 1018.68 1018.87 1019.03 1019.15 1019.24 1019.32 1019.39 1019.45 1019.52 1019.58 1019.63 1019.66 1019.66 1019.62 1019.53 1019.40 1019.23 1019.02 1018.80 1018.56 1018.32 1018.09 1017.87 1017.67 1017.49 1017.34 1017.21 1017.10 1017.02 1016.95 1016.91 1016.88 1016.87 1016.88 1016.89 1016.92 1016.96 1017.02 1017.10
1017.41 1017.70 1017.97 1018.23 1018.45 1018.64 1018.80 1018.92 1019.01 1019.10 1019.17 1019.24 1019.30 1019.36 1019.40 1019.42 1019.41 1019.37 1019.29 1019.17 1019.01 1018.82 1018.61 1018.39 1018.15 1017.91 1017.68 1017.45 1017.24 1017.04 1016.87 1016.72 1016.60 1016.51 1016.45 1016.42 1016.41 1016.43 1016.47 1016.52 1016.60 1016.69 1016.79
1017.10 1017.41 1017.70 1017.96 1018.19 1018.38 1018.54 1018.66 1018.75 1018.83 1018.90 1018.96 1019.01 1019.06 1019.09 1019.10 1019.09 1019.05 1018.98 1018.88 1018.75 1018.59 1018.41 1018.21 1017.99 1017.76 1017.51 1017.26 1017.01 1016.77 1016.54 1016.34 1016.17 1016.03 1015.94 1015.88 1015.86 1015.88 1015.92 1016.00 1016.10 1016.22 1016.36
1016.70 1017.03 1017.34 1017.62 1017.85 1018.04 1018.20 1018.32 1018.41 1018.49 1018.54 1018.59 1018.63 1018.66 1018.68 1018.69 1018.68 1018.66 1018.61 1018.55 1018.46 1018.35 1018.21 1018.05 1017.86 1017.63 1017.39 1017.12 1016.83 1016.54 1016.26 1016.00 1015.76 1015.56 1015.40 1015.30 1015.23 1015.22 1015.25 1015.33 1015.44 1015.59 1015.76
1016.19 1016.54 1016.86 1017.15 1017.39 1017.60 1017.75 1017.88 1017.97 1018.03 1018.08 1018.12 1018.14 1018.17 1018.18 1018.19 1018.20 1018.20 1018.19 1018.17 1018.14 1018.08 1018.00 1017.89 1017.73 1017.53 1017.29 1017.01 1016.70 1016.37 1016.03 1015.70 1015.39 1015.12 1014.89 1014.70 1014.58 1014.51 1014.50 1014.55 1014.66 1014.81 1015.01
1015.57 1015.93 1016.26 1016.56 1016.81 1017.02 1017.19 1017.32 1017.41 1017.47 1017.52 1017.55 1017.57 1017.58 1017.60 1017.62 1017.64 1017.67 1017.70 1017.73 1017.76 1017.76 1017.74 1017.68 1017.57 1017.40 1017.17 1016.89 1016.57 1016.20 1015.82 1015.43 1015.06 1014.71 1014.41 1014.15 1013.95 1013.81 1013.74 1013.75 1013.82 1013.96 1014.16
1014.87 1015.24 1015.57 1015.87 1016.14 1016.35 1016.53 1016.67 1016.77 1016.84 1016.88 1016.91 1016.93 1016.95 1016.96 1016.99 1017.03 1017.09 1017.15 1017.23 1017.30 1017.35 1017.38 1017.37 1017.29 1017.16 1016.95 1016.68 1016.36 1015.98 1015.58 1015.16 1014.74 1014.35 1013.98 1013.66 1013.39 1013.19 1013.06 1013.00 1013.03 1013.13 1013.31
1014.17 1014.53 1014.86 1015.16 1015.43 1015.65 1015.84 1016.00 1016.11 1016.19 1016.24 1016.27 1016.29 1016.30 1016.32 1016.34 1016.39 1016.45 1016.53 1016.62 1016.72 1016.81 1016.86 1016.88 1016.84 1016.73 1016.55 1016.30 1015.99 1015.63 1015.23 1014.81 1014.40 1013.99 1013.60 1013.25 1012.94 1012.69 1012.50 1012.39 1012.36 1012.42 1012.56
1013.56 1013.89 1014.21 1014.51 1014.77 1015.01 1015.21 1015.38 1015.50 1015.59 1015.65 1015.68 1015.69 1015.69 1015.68 1015.69 1015.71 1015.76 1015.83 1015.91 1016.00 1016.08 1016.15 1016.17 1016.14 1016.05 1015.89 1015.67 1015.40 1015.08 1014.72 1014.35 1013.97 1013.59 1013.23 1012.89 1012.59 1012.32 1012.10 1011.94 1011.86 1011.85 1011.93
1013.12 1013.42 1013.72 1013.99 1014.25 1014.49 1014.70 1014.87 1015.01 1015.10 1015.15 1015.17 1015.16 1015.12 1015.08 1015.04 1015.01 1015.01 1015.03 1015.06 1015.12 1015.17 1015.21 1015.22 1015.18 1015.10 1014.97 1014.79 1014.56 1014.30 1014.02 1013.72 1013.42 1013.12 1012.83 1012.54 1012.27 1012.02 1011.79 1011.61 1011.48 1011.41 1011.41
Thickness
5731 5729 5726 5725 5725 5724 5724 5722 5721 5720 5719 5720 5721 5721 5721 5721 5722 5723 5722 5718 5717 5716 5715 5715 5715 5714 5713 5712 5711 5711 5711 5711 5711 5711 5712 5712 5712 5711 5711 5711 5710 5709 5709
5727 5726 5724 5723 5723 5722 5721 5720 5719 5718 5718 5718 5718 5718 5718 5718 5718 5718 5719 5718 5715 5714 5714 5713 5713 5712 5711 5710 5710 5709 5708 5708 5709 5709 5709 5709 5710 5710 5710 5709 5709 5709 5708
5723 5722 5722 5722 5721 5719 5718 5718 5717 5717 5716 5717 5716 5715 5716 5715 5716 5715 5716 5715 5715 5714 5713 5712 5711 5711 5709 5708 5708 5707 5707 5707 5707 5707 5707 5707 5707 5708 5708 5708 5708 5708 5708
5720 5720 5720 5720 5717 5718 5717 5716 5716 5715 5715 5715 5715 5715 5715 5714 5714 5713 5714 5713 5713 5714 5713 5711 5710 5709 5708 5708 5707 5706 5705 5705 5705 5704 5705 5705 5706 5706 5707 5707 5707 5707 5707
5718 5718 5718 5716 5715 5716 5715 5715 5714 5713 5712 5712 5714 5713 5714 5714 5712 5713 5712 5711 5711 5710 5711 5710 5708 5708 5707 5707 5706 5705 5705 5704 5704 5703 5703 5703 5704 5704 5705 5705 5706 5706 5706
5717 5716 5715 5712 5714 5714 5712 5711 5708 5708 5708 5708 5712 5712 5711 5712 5711 5711 5710 5710 5708 5708 5709 5709 5708 5708 5706 5706 5705 5705 5704 5704 5703 5703 5702 5702 5703 5703 5703 5704 5704 5704 5705
5715 5714 5715 5710 5711 5711 5709 5709 5708 5707 5707 5706 5707 5708 5710 5711 5709 5708 5708 5708 5707 5706 5705 5705 5706 5707 5706 5705 5704 5704 5703 5703 5702 5702 5701 5701 5701 5701 5702 5702 5702 5703 5703
5714 5714 5711 5712 5710 5708 5706 5705 5704 5706 5705 5704 5704 5704 5703 5704 5704 5707 5706 5705 5704 5704 5704 5704 5703 5702 5704 5705 5704 5702 5701 5701 5701 5701 5701 5701 5700 5700 5700 5700 5701 5701 5702
5714 5712 5710 5711 5709 5710 5707 5704 5703 5701 5702 5703 5702 5701 5700 5699 5701 5703 5701 5701 5700 5700 5702 5702 5701 5700 5701 5702 5702 5700 5699 5699 5699 5699 5700 5700 5699 5699 5699 5699 5699 5700 5701
5714 5712 5710 5709 5708 5709 5705 5705 5703 5702 5699 5702 5701 5699 5698 5696 5693 5696 5699 5699 5698 5697 5697 5699 5699 5698 5698 5699 5697 5695 5695 5695 5696 5697 5697 5698 5698 5697 5697 5698 5698 5698 5699
5714 5712 5710 5709 5707 5707 5704 5702 5700 5700 5700 5699 5699 5698 5696 5694 5693 5691 5691 5692 5696 5697 5696 5695 5695 5695 5694 5694 5693 5691 5691 5691 5692 5693 5694 5695 5696 5695 5695 5696 5696 5697 5697
5716 5713 5711 5709 5707 5707 5703 5701 5699 5698 5697 5695 5695 5696 5694 5693 5691 5689 5687 5687 5689 5693 5691 5691 5691 5691 5690 5690 5688 5685 5685 5686 5687 5688 5689 5691 5692 5693 5693 5694 5694 5695 5695
5718 5714 5713 5709 5708 5705 5702 5700 5698 5698 5696 5693 5691 5692 5692 5690 5688 5686 5684 5684 5683 5688 5687 5688 5688 5686 5686 5684 5682 5679 5679 5680 5681 5682 5683 5685 5686 5688 5689 5690 5691 5692 5693
5721 5716 5712 5709 5707 5704 5702 5699 5700 5697 5694 5691 5690 5687 5687 5688 5686 5683 5681 5678 5678 5682 5683 5682 5683 5682 5679 5677 5676 5673 5676 5675 5675 5675 5677 5678 5680 5682 5683 5685 5686 5687 5689
5720 5715 5712 5709 5706 5703 5700 5698 5698 5694 5692 5690 5690 5687 5684 5685 5682 5681 5678 5676 5672 5670 5674 5676 5676 5676 5673 5671 5670 5668 5670 5670 5669 5669 5670 5672 5673 5675 5677 5679 5680 5682 5684
5717 5714 5711 5708 5705 5702 5699 5696 5695 5693 5689 5687 5685 5682 5680 5682 5680 5677 5675 5673 5670 5667 5666 5671 5669 5670 5666 5664 5666 5664 5664 5664 5664 5665 5665 5666 5667 5668 5670 5672 5674 5676 5678
5714 5712 5709 5707 5704 5701 5697 5694 5694 5691 5687 5685 5683 5680 5677 5675 5675 5674 5672 5669 5667 5664 5661 5664 5666 5665 5660 5658 5659 5659 5660 5661 5664 5662 5660 5660 5660 5662 5663 5665 5667 5669 5671
5713 5710 5708 5705 5702 5700 5696 5693 5690 5688 5685 5682 5680 5678 5675 5674 5670 5668 5666 5665 5663 5660 5656 5655 5657 5658 5656 5655 5653 5652 5655 5658 5658 5658 5656 5654 5655 5655 5656 5658 5660 5662 5665
5712 5709 5705 5702 5700 5697 5694 5691 5688 5685 5683 5680 5678 5675 5672 5669 5665 5665 5661 5660 5660 5658 5655 5652 5652 5653 5652 5651 5649 5649 5650 5649 5650 5653 5652 5651 5650 5650 5651 5652 5653 5655 5658
5710 5707 5703 5700 5697 5694 5691 5689 5685 5682 5679 5677 5674 5671 5669 5666 5662 5659 5657 5654 5652 5651 5650 5648 5648 5649 5647 5647 5644 5643 5644 5646 5646 5648 5648 5647 5646 5645 5646 5647 5648 5649 5651
5708 5704 5701 5697 5694 5692 5690 5686 5682 5679 5675 5673 5671 5668 5666 5663 5659 5655 5653 5652 5648 5646 5645 5645 5644 5643 5642 5639 5638 5638 5637 5637 5639 5640 5641 5641 5643 5645 5646 5644 5643 5644 5645
5705 5701 5698 5694 5692 5690 5686 5680 5676 5675 5672 5669 5667 5665 5663 5658 5654 5648 5645 5642 5639 5638 5639 5637 5637 5635 5633 5632 5631 5629 5628 5629 5629 5633 5631 5632 5635 5637 5639 5640 5642 5640 5638
5701 5697 5694 5691 5688 5685 5680 5674 5668 5666 5667 5666 5663 5660 5659 5660 5653 5650 5644 5637 5634 5630 5628 5628 5629 5627 5627 5626 5623 5621 5620 5619 5619 5621 5620 5623 5626 5628 5631 5634 5633 5632 5631
5697 5693 5690 5688 5684 5681 5675 5669 5663 5660 5661 5661 5659 5657 5654 5652 5651 5646 5643 5640 5637 5634 5629 5623 5623 5622 5621 5619 5616 5613 5611 5611 5612 5612 5612 5613 5617 5620 5625 5627 5627 5626 5624
5692 5689 5686 5683 5679 5676 5670 5664 5657 5657 5658 5657 5656 5655 5652 5649 5646 5639 5635 5633 5632 5632 5629 5625 5621 5618 5614 5610 5606 5605 5606 5605 5608 5610 5611 5608 5611 5612 5616 5619 5622 5621 5620
5686 5683 5681 5678 5675 5671 5666 5658 5651 5653 5654 5654 5654 5652 5648 5644 5641 5634 5630 5628 5627 5627 5625 5623 5617 5613 5609 5606 5602 5598 5599 5600 5603 5604 5606 5602 5603 5603 5606 5613 5616 5617 5615